Girona, Spain

4:27 PM CET on March 23, 2017 (GMT +0100)
Girona

Weather History for LEGE - March, 2013

Change the Weather History Date:

Saturday, March 2, 2013

  Actual Average Record
Temperature  
Mean Temperature 50 °F -  
Max Temperature 60 °F 63 °F 73 °F (2007)
Min Temperature 39 °F 40 °F 26 °F (2005)
Degree Days  
Heating Degree Days 16    
Moisture  
Dew Point 38 °F    
Average Humidity 67    
Maximum Humidity 100    
Minimum Humidity 45    
Precipitation  
Precipitation 0.00 in 0.07 in - ()
Sea Level Pressure  
Sea Level Pressure 30.02 in    
Wind  
Wind Speed 6 mph ()    
Max Wind Speed 10 mph    
Max Gust Speed -    
Visibility 7.3 miles    
Events      
Averages and records for this station are not official NWS values.
T = Trace of Precipitation, MM = Missing Value Source: Averaged Metar Reports

Daily Weather History Graph

Daily Weather History Graph

Search for Another Location

Airport or City:

Trip Planner

Search our weather history database for the weather conditions in past years. The results will help you decide how hot, cold, wet, or windy it might be!

Date:

Astronomy

Mar. 02, 2013 Rise Set
Actual Time 7:22 AM CET 6:40 PM CET
Civil Twilight 6:54 AM CET 7:08 PM CET
Nautical Twilight 6:22 AM CET 7:40 PM CET
Astronomical Twilight 5:49 AM CET 8:13 PM CET
Moon No Moon Rise 9:33 AM CET (3/2)
Length of Visible Light 12h 14m
Length of Day
11h 18m
Waning Gibbous, 76% of the Moon is Illuminated
Mar 2
Waning Gibbous
Mar 4
Last Quarter
Mar 11
New
Mar 19
First Quarter
Mar 27
Full

Hourly Weather History & Observations

Time (CET) Temp. Windchill Dew Point Humidity Pressure Visibility Wind Dir Wind Speed Gust Speed Precip Events Conditions
12:00 AM 46.4 °F 41.5 °F 32.0 °F 57% 29.95 in 6.2 mi NE 10.4 mph - N/A   Partly Cloudy
12:30 AM 48.2 °F - 32.0 °F 54% 29.95 in 6.2 mi NE 9.2 mph - N/A   Partly Cloudy
1:00 AM 49 °F - 34 °F 45% 29.95 in - NNE 9.2 mph - -  
1:00 AM 48.2 °F - 32.0 °F 54% 29.95 in 6.2 mi NNE 9.2 mph - N/A   Partly Cloudy
1:30 AM 48.2 °F - 30.2 °F 50% 29.95 in 6.2 mi North 5.8 mph - N/A   Partly Cloudy
2:00 AM 48.2 °F - 32.0 °F 54% 29.95 in 6.2 mi North 8.1 mph - N/A   Partly Cloudy
2:30 AM 48.2 °F - 33.8 °F 58% 29.95 in 6.2 mi NNE 10.4 mph - N/A   Partly Cloudy
3:00 AM 46.4 °F 45.2 °F 33.8 °F 62% 29.95 in 6.2 mi NW 3.5 mph - N/A   Partly Cloudy
3:30 AM 46.4 °F 45.2 °F 35.6 °F 66% 29.95 in 6.2 mi North 3.5 mph - N/A   Partly Cloudy
4:00 AM 46.4 °F - 35.6 °F 66% 29.98 in 6.2 mi Variable 1.2 mph - N/A   Partly Cloudy
4:30 AM 44.6 °F - 35.6 °F 71% 29.98 in 6.2 mi Variable 2.3 mph - N/A   Partly Cloudy
5:00 AM 42.8 °F 41.1 °F 35.6 °F 76% 29.98 in 6.2 mi NNE 3.5 mph - N/A   Partly Cloudy
5:30 AM 44.6 °F 42.2 °F 33.8 °F 66% 29.98 in 6.2 mi North 4.6 mph - N/A   Partly Cloudy
6:00 AM 44.6 °F 43.1 °F 33.8 °F 66% 29.98 in 6.2 mi North 3.5 mph - N/A   Partly Cloudy
6:30 AM 39.2 °F 37.0 °F 33.8 °F 81% 30.01 in 6.2 mi WNW 3.5 mph - N/A   Partly Cloudy
7:00 AM 43 °F - 34 °F 60% 30.00 in 12 mi NW 5.8 mph - -   Scattered Clouds
7:30 AM 39.2 °F 35.9 °F 32.0 °F 75% 30.01 in 6.2 mi WNW 4.6 mph - N/A   Partly Cloudy
8:00 AM 41.0 °F 38.0 °F 32.0 °F 70% 30.01 in 6.2 mi NW 4.6 mph - N/A   Partly Cloudy
8:30 AM 42.8 °F 41.1 °F 33.8 °F 70% 30.01 in 6.2 mi NW 3.5 mph - N/A   Partly Cloudy
9:00 AM 42.8 °F - 33.8 °F 70% 30.01 in 6.2 mi Variable 2.3 mph - N/A   Partly Cloudy
9:30 AM 44.6 °F - 35.6 °F 71% 30.04 in 6.2 mi Variable 1.2 mph - N/A   Partly Cloudy
10:00 AM 46.4 °F - 37.4 °F 71% 30.04 in - Variable 2.3 mph - N/A   Clear
10:30 AM 48.2 °F - 33.8 °F 58% 30.04 in - Variable 2.3 mph - N/A   Clear
11:00 AM 50.0 °F - 37.4 °F 62% 30.04 in - SSW 3.5 mph - N/A   Clear
11:30 AM 51.8 °F - 35.6 °F 54% 30.04 in - SSE 5.8 mph - N/A   Clear
12:00 PM 51.8 °F - 37.4 °F 58% 30.04 in - South 6.9 mph - N/A   Clear
12:30 PM 53.6 °F - 35.6 °F 51% 30.04 in - SSW 9.2 mph - N/A   Clear
1:00 PM 58 °F - 42 °F 45% 30.03 in 19 mi South 10.4 mph - -   Clear
1:00 PM 55.4 °F - 41.0 °F 58% 30.04 in - South 9.2 mph - N/A   Clear
1:30 PM 55.4 °F - 41.0 °F 58% 30.04 in - South 9.2 mph - N/A   Clear
2:00 PM 57.2 °F - 41.0 °F 55% 30.04 in - South 10.4 mph - N/A   Clear
2:30 PM 57.2 °F - 42.8 °F 59% 30.01 in - South 6.9 mph - N/A   Clear
3:00 PM 57.2 °F - 42.8 °F 59% 30.01 in - South 8.1 mph - N/A   Clear
3:30 PM 57.2 °F - 41.0 °F 55% 30.01 in - SSW 9.2 mph - N/A   Clear
4:00 PM 55.4 °F - 42.8 °F 63% 30.01 in - SSW 10.4 mph - N/A   Clear
4:30 PM 55.4 °F - 42.8 °F 63% 30.04 in - South 10.4 mph - N/A   Clear
5:00 PM 55.4 °F - 42.8 °F 63% 30.04 in - South 8.1 mph - N/A   Clear
5:30 PM 53.6 °F - 42.8 °F 67% 30.04 in - South 6.9 mph - N/A   Clear
6:00 PM 51.8 °F - 42.8 °F 71% 30.04 in - South 8.1 mph - N/A   Clear
6:30 PM 51.8 °F - 42.8 °F 71% 30.04 in - South 5.8 mph - N/A   Clear
7:00 PM 51 °F - 44 °F 68% 30.04 in 16 mi South 5.8 mph - -   Scattered Clouds
7:00 PM 50.0 °F - 42.8 °F 76% 30.04 in - South 5.8 mph - N/A   Clear
7:30 PM 48.2 °F - 41.0 °F 76% 30.06 in - Variable 1.2 mph - N/A   Clear
8:00 PM 46.4 °F - 41.0 °F 81% 30.06 in - Calm Calm - N/A   Clear
8:30 PM 44.6 °F - 41.0 °F 87% 30.06 in - Calm Calm - N/A   Clear
9:00 PM 44.6 °F - 39.2 °F 81% 30.06 in 6.2 mi Variable 1.2 mph - N/A   Partly Cloudy
9:30 PM 42.8 °F - 39.2 °F 87% 30.09 in 6.2 mi Calm Calm - N/A   Partly Cloudy
10:00 PM 41.0 °F - 41.0 °F 100% 30.09 in 6.2 mi Calm Calm - N/A   Partly Cloudy
10:30 PM 39.2 °F - 39.2 °F 100% 30.09 in - NNE 1.2 mph - N/A   Clear
11:00 PM 39.2 °F - 39.2 °F 100% 30.09 in - Calm Calm - N/A   Clear
11:30 PM 39.2 °F - 39.2 °F 100% 30.09 in - Calm Calm - N/A   Clear